PISAT (41784 NORAD) Tracking and Keplerian Element Data

This shows tracking and keplerian element data for the satellite.

Feedback or suggestion? Click here.




ElementValue
Catalog41784
NamePISAT
Epoch Orbit41130
Epoch Day159.9386201
Epoch Year2024
RAAN182.3707
Inclination97.8334
Eccentricity0.0031632
Argument of Perigee45.2596
Mean Anonmoly315.1175
Mean Motion14.65911142
Decay Rate2.596E-05
L11 41784U 16059B 24159.93862010 .00002596 00000+0 47965-3 0 9990
L22 41784 97.8334 182.3707 0031632 45.2596 315.1175 14.65911142411300



Live tracking and technical data element details for PISAT (NORAD 41784). PISAT can be tracked NOW for your location showing map with azimuth and elevation plus other details from your city location.







IsCatalogInMostPopularTable: catalog: 41784, numindb: 617
Update: records affected: 1



GetName: 41784 PISAT

Hit Count: updated at: Fri, 14 Jun 2024 18:47:35 GMT